Time,TemperatureF,DewpointF,PressureIn,WindDirection,WindDirectionDegrees,WindSpeedMPH,WindSpeedGustMPH,Humidity,HourlyPrecipIn,Conditions,Clouds,dailyrainin,SoftwareType,DateUTC
2013-09-11 00:00:00,76.1,67.2,30.14,SSE,147,0.0,0.0,74,0.00,,---,0.00,VWS V14.01,2013-09-11 04:00:00,
2013-09-11 00:01:00,75.6,68.3,30.14,SSE,157,0.0,0.0,78,0.00,,---,0.00,VWS V14.01,2013-09-11 04:01:00,
2013-09-11 00:03:00,75.4,68.1,30.14,SSE,157,0.0,0.0,78,0.00,,---,0.00,VWS V14.01,2013-09-11 04:03:00,
2013-09-11 00:05:00,76.3,67.4,30.14,ENE,72,0.0,2.0,74,0.00,,---,0.00,VWS V14.01,2013-09-11 04:05:00,
2013-09-11 00:08:00,75.3,68.0,30.14,SSE,157,0.0,0.0,78,0.00,,---,0.00,VWS V14.01,2013-09-11 04:08:00,
2013-09-11 00:10:00,76.5,67.6,30.14,East,89,0.0,1.0,74,0.00,,---,0.00,VWS V14.01,2013-09-11 04:10:00,
2013-09-11 00:13:00,75.1,67.8,30.14,SSE,151,0.0,0.0,78,0.00,,---,0.00,VWS V14.01,2013-09-11 04:13:00,
2013-09-11 00:15:00,76.3,67.8,30.14,East,100,0.0,0.0,75,0.00,,---,0.00,VWS V14.01,2013-09-11 04:15:00,
2013-09-11 00:18:00,74.9,67.6,30.14,SSE,148,0.0,0.0,78,0.00,,---,0.00,VWS V14.01,2013-09-11 04:18:00,
2013-09-11 00:20:00,76.3,67.8,30.14,East,100,0.0,1.0,75,0.00,,---,0.00,VWS V14.01,2013-09-11 04:20:00,
2013-09-11 00:23:00,74.9,67.6,30.14,SSE,148,0.0,0.0,78,0.00,,---,0.00,VWS V14.01,2013-09-11 04:23:00,
2013-09-11 00:25:00,76.3,67.8,30.14,East,96,0.0,2.0,75,0.00,,---,0.00,VWS V14.01,2013-09-11 04:25:00,
2013-09-11 00:27:00,74.9,67.6,30.14,SSE,148,0.0,0.0,78,0.00,,---,0.00,VWS V14.01,2013-09-11 04:27:00,
2013-09-11 00:30:00,76.1,68.0,30.14,SSE,157,0.0,1.0,76,0.00,,---,0.00,VWS V14.01,2013-09-11 04:30:00,
2013-09-11 00:32:00,74.9,67.9,30.13,SE,145,0.0,0.0,79,0.00,,---,0.00,VWS V14.01,2013-09-11 04:32:00,
2013-09-11 00:35:00,76.1,67.6,30.14,SSE,157,0.0,0.0,75,0.00,,---,0.00,VWS V14.01,2013-09-11 04:35:00,
2013-09-11 00:37:00,74.7,67.8,30.13,SE,145,0.0,0.0,79,0.00,,---,0.00,VWS V14.01,2013-09-11 04:37:00,
2013-09-11 00:40:00,76.1,68.0,30.14,SSE,157,0.0,0.0,76,0.00,,---,0.00,VWS V14.01,2013-09-11 04:40:00,
2013-09-11 00:42:00,74.6,68.0,30.13,SE,145,0.0,0.0,80,0.00,,---,0.00,VWS V14.01,2013-09-11 04:42:00,
2013-09-11 00:45:00,76.0,67.9,30.14,SSE,157,0.0,0.0,76,0.00,,---,0.00,VWS V14.01,2013-09-11 04:45:00,
2013-09-11 00:47:00,74.4,67.8,30.13,SE,145,0.0,0.0,80,0.00,,---,0.00,VWS V14.01,2013-09-11 04:47:00,
2013-09-11 00:50:00,75.8,68.1,30.14,SSE,157,0.0,0.0,77,0.00,,---,0.00,VWS V14.01,2013-09-11 04:50:00,
2013-09-11 00:52:00,74.2,67.6,30.13,SE,145,0.0,0.0,80,0.00,,---,0.00,VWS V14.01,2013-09-11 04:52:00,
2013-09-11 00:55:00,75.6,67.9,30.14,SSE,157,0.0,0.0,77,0.00,,---,0.00,VWS V14.01,2013-09-11 04:55:00,
2013-09-11 00:57:00,74.0,67.8,30.13,SE,145,0.0,0.0,81,0.00,,---,0.00,VWS V14.01,2013-09-11 04:57:00,
2013-09-11 01:00:00,75.4,68.1,30.14,SSE,157,0.0,0.0,78,0.00,,---,0.00,VWS V14.01,2013-09-11 05:00:00,
2013-09-11 01:02:00,73.9,67.7,30.13,SE,145,0.0,0.0,81,0.00,,---,0.00,VWS V14.01,2013-09-11 05:02:00,
2013-09-11 01:05:00,75.4,68.1,30.14,SSE,157,0.0,0.0,78,0.00,,---,0.00,VWS V14.01,2013-09-11 05:05:00,
2013-09-11 01:07:00,73.7,67.5,30.13,SE,145,0.0,0.0,81,0.00,,---,0.00,VWS V14.01,2013-09-11 05:07:00,
2013-09-11 01:10:00,75.1,67.8,30.14,SSE,151,0.0,2.0,78,0.00,,---,0.00,VWS V14.01,2013-09-11 05:10:00,
2013-09-11 01:12:00,73.7,67.5,30.13,SE,145,0.0,0.0,81,0.00,,---,0.00,VWS V14.01,2013-09-11 05:12:00,
2013-09-11 01:15:00,75.1,67.8,30.14,SSE,155,0.0,1.0,78,0.00,,---,0.00,VWS V14.01,2013-09-11 05:15:00,
2013-09-11 01:17:00,73.5,67.3,30.13,SE,145,0.0,0.0,81,0.00,,---,0.00,VWS V14.01,2013-09-11 05:17:00,
2013-09-11 01:20:00,74.9,67.6,30.14,SSE,148,0.0,0.0,78,0.00,,---,0.00,VWS V14.01,2013-09-11 05:20:00,
2013-09-11 01:22:00,73.3,67.5,30.13,SE,145,0.0,0.0,82,0.00,,---,0.00,VWS V14.01,2013-09-11 05:22:00,
2013-09-11 01:25:00,74.9,67.6,30.14,SSE,148,0.0,0.0,78,0.00,,---,0.00,VWS V14.01,2013-09-11 05:25:00,
2013-09-11 01:27:00,73.2,67.4,30.13,SE,145,0.0,0.0,82,0.00,,---,0.00,VWS V14.01,2013-09-11 05:27:00,
2013-09-11 01:30:00,74.9,67.6,30.13,SE,145,0.0,0.0,78,0.00,,---,0.00,VWS V14.01,2013-09-11 05:30:00,
2013-09-11 01:32:00,73.0,67.2,30.13,SE,145,0.0,0.0,82,0.00,,---,0.00,VWS V14.01,2013-09-11 05:32:00,
2013-09-11 01:35:00,74.7,67.8,30.13,SE,145,0.0,0.0,79,0.00,,---,0.00,VWS V14.01,2013-09-11 05:35:00,
2013-09-11 01:37:00,73.0,67.5,30.13,SE,145,0.0,0.0,83,0.00,,---,0.00,VWS V14.01,2013-09-11 05:37:00,
2013-09-11 01:40:00,74.6,68.0,30.13,SE,145,0.0,0.0,80,0.00,,---,0.00,VWS V14.01,2013-09-11 05:40:00,
2013-09-11 01:42:00,73.0,67.5,30.13,SE,145,0.0,0.0,83,0.00,,---,0.00,VWS V14.01,2013-09-11 05:42:00,
2013-09-11 01:45:00,74.4,67.8,30.13,SE,145,0.0,0.0,80,0.00,,---,0.00,VWS V14.01,2013-09-11 05:45:00,
2013-09-11 01:47:00,72.8,67.3,30.12,SE,145,0.0,0.0,83,0.00,,---,0.00,VWS V14.01,2013-09-11 05:47:00,
2013-09-11 01:50:00,74.2,67.6,30.13,SE,145,0.0,0.0,80,0.00,,---,0.00,VWS V14.01,2013-09-11 05:50:00,
2013-09-11 01:52:00,72.8,67.3,30.12,SE,145,0.0,0.0,83,0.00,,---,0.00,VWS V14.01,2013-09-11 05:52:00,
2013-09-11 01:55:00,74.0,67.4,30.13,SE,145,0.0,0.0,80,0.00,,---,0.00,VWS V14.01,2013-09-11 05:55:00,
2013-09-11 01:57:00,72.7,67.6,30.12,SE,145,0.0,0.0,84,0.00,,---,0.00,VWS V14.01,2013-09-11 05:57:00,
2013-09-11 02:00:00,73.9,67.7,30.13,SE,145,0.0,0.0,81,0.00,,---,0.00,VWS V14.01,2013-09-11 06:00:00,
2013-09-11 02:02:00,72.7,67.6,30.13,SE,145,0.0,0.0,84,0.00,,---,0.00,VWS V14.01,2013-09-11 06:02:00,
2013-09-11 02:05:00,73.9,67.7,30.13,SE,145,0.0,0.0,81,0.00,,---,0.00,VWS V14.01,2013-09-11 06:05:00,
2013-09-11 02:07:00,72.5,67.4,30.13,SE,145,0.0,0.0,84,0.00,,---,0.00,VWS V14.01,2013-09-11 06:07:00,
2013-09-11 02:10:00,73.7,67.5,30.13,SE,145,0.0,0.0,81,0.00,,---,0.00,VWS V14.01,2013-09-11 06:10:00,
2013-09-11 02:12:00,72.3,67.5,30.13,SE,145,0.0,0.0,85,0.00,,---,0.00,VWS V14.01,2013-09-11 06:12:00,
2013-09-11 02:15:00,73.5,67.3,30.13,SE,145,0.0,0.0,81,0.00,,---,0.00,VWS V14.01,2013-09-11 06:15:00,
2013-09-11 02:17:00,72.1,67.3,30.12,SE,145,0.0,0.0,85,0.00,,---,0.00,VWS V14.01,2013-09-11 06:17:00,
2013-09-11 02:20:00,73.3,67.5,30.13,SE,145,0.0,0.0,82,0.00,,---,0.00,VWS V14.01,2013-09-11 06:20:00,
2013-09-11 02:22:00,72.1,67.3,30.12,SE,145,0.0,0.0,85,0.00,,---,0.00,VWS V14.01,2013-09-11 06:22:00,
2013-09-11 02:25:00,73.2,67.4,30.13,SE,145,0.0,0.0,82,0.00,,---,0.00,VWS V14.01,2013-09-11 06:25:00,
2013-09-11 02:27:00,72.0,67.2,30.12,SE,145,0.0,0.0,85,0.00,,---,0.00,VWS V14.01,2013-09-11 06:27:00,
2013-09-11 02:30:00,73.0,67.2,30.13,SE,145,0.0,0.0,82,0.00,,---,0.00,VWS V14.01,2013-09-11 06:30:00,
2013-09-11 02:32:00,72.0,67.2,30.12,SE,145,0.0,0.0,85,0.00,,---,0.00,VWS V14.01,2013-09-11 06:32:00,
2013-09-11 02:35:00,73.0,67.5,30.13,SE,145,0.0,0.0,83,0.00,,---,0.00,VWS V14.01,2013-09-11 06:35:00,
2013-09-11 02:37:00,71.8,67.1,30.12,SE,145,0.0,0.0,85,0.00,,---,0.00,VWS V14.01,2013-09-11 06:37:00,
2013-09-11 02:40:00,73.0,67.5,30.13,SE,145,0.0,0.0,83,0.00,,---,0.00,VWS V14.01,2013-09-11 06:40:00,
2013-09-11 02:42:00,71.8,67.1,30.12,SE,145,0.0,0.0,85,0.00,,---,0.00,VWS V14.01,2013-09-11 06:42:00,
2013-09-11 02:45:00,72.8,67.3,30.12,SE,145,0.0,0.0,83,0.00,,---,0.00,VWS V14.01,2013-09-11 06:45:00,
2013-09-11 02:47:00,71.6,66.9,30.11,SE,145,0.0,0.0,85,0.00,,---,0.00,VWS V14.01,2013-09-11 06:47:00,
2013-09-11 02:50:00,72.8,67.3,30.12,SE,145,0.0,0.0,83,0.00,,---,0.00,VWS V14.01,2013-09-11 06:50:00,
2013-09-11 02:52:00,71.6,66.9,30.11,SE,145,0.0,0.0,85,0.00,,---,0.00,VWS V14.01,2013-09-11 06:52:00,
2013-09-11 02:55:00,72.7,67.6,30.12,SE,145,0.0,0.0,84,0.00,,---,0.00,VWS V14.01,2013-09-11 06:55:00,
2013-09-11 02:57:00,71.5,66.8,30.11,SE,145,0.0,0.0,85,0.00,,---,0.00,VWS V14.01,2013-09-11 06:57:00,
2013-09-11 03:00:00,72.7,67.6,30.13,SE,145,0.0,0.0,84,0.00,,---,0.00,VWS V14.01,2013-09-11 07:00:00,
2013-09-11 03:02:00,71.3,66.6,30.11,SE,145,0.0,0.0,85,0.00,,---,0.00,VWS V14.01,2013-09-11 07:02:00,
2013-09-11 03:05:00,72.5,67.4,30.13,SE,145,0.0,0.0,84,0.00,,---,0.00,VWS V14.01,2013-09-11 07:05:00,
2013-09-11 03:07:00,71.3,66.9,30.11,SE,145,0.0,0.0,86,0.00,,---,0.00,VWS V14.01,2013-09-11 07:07:00,
2013-09-11 03:10:00,72.3,67.2,30.13,SE,145,0.0,0.0,84,0.00,,---,0.00,VWS V14.01,2013-09-11 07:10:00,
2013-09-11 03:12:00,71.1,66.7,30.11,SE,145,0.0,0.0,86,0.00,,---,0.00,VWS V14.01,2013-09-11 07:12:00,
2013-09-11 03:15:00,72.1,67.0,30.12,SE,145,0.0,0.0,84,0.00,,---,0.00,VWS V14.01,2013-09-11 07:15:00,
2013-09-11 03:17:00,71.1,66.7,30.11,SE,145,0.0,0.0,86,0.00,,---,0.00,VWS V14.01,2013-09-11 07:17:00,
2013-09-11 03:20:00,72.1,67.3,30.12,SE,145,0.0,0.0,85,0.00,,---,0.00,VWS V14.01,2013-09-11 07:20:00,
2013-09-11 03:22:00,70.9,66.5,30.11,SE,145,0.0,0.0,86,0.00,,---,0.00,VWS V14.01,2013-09-11 07:22:00,
2013-09-11 03:25:00,72.0,67.2,30.12,SE,145,0.0,0.0,85,0.00,,---,0.00,VWS V14.01,2013-09-11 07:25:00,
2013-09-11 03:27:00,70.9,66.5,30.11,SE,145,0.0,0.0,86,0.00,,---,0.00,VWS V14.01,2013-09-11 07:27:00,
2013-09-11 03:30:00,72.0,67.2,30.12,SE,145,0.0,0.0,85,0.00,,---,0.00,VWS V14.01,2013-09-11 07:30:00,
2013-09-11 03:32:00,70.9,66.5,30.11,SE,145,0.0,0.0,86,0.00,,---,0.00,VWS V14.01,2013-09-11 07:32:00,
2013-09-11 03:35:00,71.8,67.1,30.12,SE,145,0.0,0.0,85,0.00,,---,0.00,VWS V14.01,2013-09-11 07:35:00,
2013-09-11 03:37:00,70.8,66.4,30.11,SE,145,0.0,0.0,86,0.00,,---,0.00,VWS V14.01,2013-09-11 07:37:00,
2013-09-11 03:40:00,71.8,67.1,30.12,SE,145,0.0,0.0,85,0.00,,---,0.00,VWS V14.01,2013-09-11 07:40:00,
2013-09-11 03:42:00,70.8,66.4,30.11,SE,145,0.0,0.0,86,0.00,,---,0.00,VWS V14.01,2013-09-11 07:42:00,
2013-09-11 03:45:00,71.8,67.1,30.11,SE,145,0.0,0.0,85,0.00,,---,0.00,VWS V14.01,2013-09-11 07:45:00,
2013-09-11 03:47:00,70.8,66.4,30.11,SE,145,0.0,0.0,86,0.00,,---,0.00,VWS V14.01,2013-09-11 07:47:00,
2013-09-11 03:50:00,71.6,66.9,30.11,SE,145,0.0,0.0,85,0.00,,---,0.00,VWS V14.01,2013-09-11 07:50:00,
2013-09-11 03:52:00,70.6,66.6,30.11,SE,145,0.0,0.0,87,0.00,,---,0.00,VWS V14.01,2013-09-11 07:52:00,
2013-09-11 03:55:00,71.5,66.8,30.11,SE,145,0.0,0.0,85,0.00,,---,0.00,VWS V14.01,2013-09-11 07:55:00,
2013-09-11 03:57:00,70.6,66.2,30.11,SE,145,0.0,0.0,86,0.00,,---,0.00,VWS V14.01,2013-09-11 07:57:00,
2013-09-11 04:00:00,71.5,67.1,30.11,SE,145,0.0,0.0,86,0.00,,---,0.00,VWS V14.01,2013-09-11 08:00:00,
2013-09-11 04:02:00,70.4,66.3,30.10,SE,145,0.0,0.0,87,0.00,,---,0.00,VWS V14.01,2013-09-11 08:02:00,
2013-09-11 04:05:00,71.3,66.9,30.11,SE,145,0.0,0.0,86,0.00,,---,0.00,VWS V14.01,2013-09-11 08:05:00,
2013-09-11 04:07:00,70.4,66.3,30.10,SE,145,0.0,0.0,87,0.00,,---,0.00,VWS V14.01,2013-09-11 08:07:00,
2013-09-11 04:10:00,71.3,66.9,30.11,SE,145,0.0,0.0,86,0.00,,---,0.00,VWS V14.01,2013-09-11 08:10:00,
2013-09-11 04:12:00,70.4,66.3,30.10,SE,145,0.0,0.0,87,0.00,,---,0.00,VWS V14.01,2013-09-11 08:12:00,
2013-09-11 04:15:00,71.1,66.7,30.11,SE,145,0.0,0.0,86,0.00,,---,0.00,VWS V14.01,2013-09-11 08:15:00,
2013-09-11 04:17:00,70.3,66.2,30.11,SE,145,0.0,0.0,87,0.00,,---,0.00,VWS V14.01,2013-09-11 08:17:00,
2013-09-11 04:20:00,71.1,66.7,30.11,SE,145,0.0,0.0,86,0.00,,---,0.00,VWS V14.01,2013-09-11 08:20:00,
2013-09-11 04:22:00,70.3,66.2,30.11,SE,145,0.0,0.0,87,0.00,,---,0.00,VWS V14.01,2013-09-11 08:22:00,
2013-09-11 04:25:00,70.9,66.5,30.11,SE,145,0.0,0.0,86,0.00,,---,0.00,VWS V14.01,2013-09-11 08:25:00,
2013-09-11 04:27:00,70.3,66.2,30.11,SE,145,0.0,0.0,87,0.00,,---,0.00,VWS V14.01,2013-09-11 08:27:00,
2013-09-11 04:30:00,70.9,66.5,30.11,SE,145,0.0,0.0,86,0.00,,---,0.00,VWS V14.01,2013-09-11 08:30:00,
2013-09-11 04:32:00,70.3,66.2,30.11,SE,145,0.0,0.0,87,0.00,,---,0.00,VWS V14.01,2013-09-11 08:32:00,
2013-09-11 04:35:00,70.9,66.5,30.11,SE,145,0.0,0.0,86,0.00,,---,0.00,VWS V14.01,2013-09-11 08:35:00,
2013-09-11 04:37:00,70.1,66.4,30.11,SE,145,0.0,0.0,88,0.00,,---,0.00,VWS V14.01,2013-09-11 08:37:00,
2013-09-11 04:40:00,70.8,66.4,30.11,SE,145,0.0,0.0,86,0.00,,---,0.00,VWS V14.01,2013-09-11 08:40:00,
2013-09-11 04:42:00,70.1,66.4,30.11,SE,145,0.0,0.0,88,0.00,,---,0.00,VWS V14.01,2013-09-11 08:42:00,
2013-09-11 04:45:00,70.8,66.4,30.11,SE,145,0.0,0.0,86,0.00,,---,0.00,VWS V14.01,2013-09-11 08:45:00,
2013-09-11 04:47:00,69.9,66.2,30.11,SE,145,0.0,0.0,88,0.00,,---,0.00,VWS V14.01,2013-09-11 08:47:00,
2013-09-11 04:50:00,70.6,66.6,30.11,SE,145,0.0,0.0,87,0.00,,---,0.00,VWS V14.01,2013-09-11 08:50:00,
2013-09-11 04:52:00,69.9,66.2,30.11,SE,145,0.0,0.0,88,0.00,,---,0.00,VWS V14.01,2013-09-11 08:52:00,
2013-09-11 04:55:00,70.6,66.2,30.11,SE,145,0.0,0.0,86,0.00,,---,0.00,VWS V14.01,2013-09-11 08:55:00,
2013-09-11 04:57:00,69.9,66.2,30.11,SE,145,0.0,0.0,88,0.00,,---,0.00,VWS V14.01,2013-09-11 08:57:00,
2013-09-11 05:00:00,70.6,66.6,30.10,SE,145,0.0,0.0,87,0.00,,---,0.00,VWS V14.01,2013-09-11 09:00:00,
2013-09-11 05:02:00,69.9,66.2,30.11,SE,145,0.0,0.0,88,0.00,,---,0.00,VWS V14.01,2013-09-11 09:02:00,
2013-09-11 05:05:00,70.4,66.3,30.10,SE,145,0.0,0.0,87,0.00,,---,0.00,VWS V14.01,2013-09-11 09:05:00,
2013-09-11 05:07:00,69.8,66.1,30.11,SE,145,0.0,0.0,88,0.00,,---,0.00,VWS V14.01,2013-09-11 09:07:00,
2013-09-11 05:10:00,70.4,66.3,30.10,SE,145,0.0,0.0,87,0.00,,---,0.00,VWS V14.01,2013-09-11 09:10:00,
2013-09-11 05:12:00,69.8,66.1,30.11,SE,145,0.0,0.0,88,0.00,,---,0.00,VWS V14.01,2013-09-11 09:12:00,
2013-09-11 05:15:00,70.3,66.2,30.11,SE,145,0.0,0.0,87,0.00,,---,0.00,VWS V14.01,2013-09-11 09:15:00,
2013-09-11 05:17:00,69.8,66.1,30.11,SE,145,0.0,0.0,88,0.00,,---,0.00,VWS V14.01,2013-09-11 09:17:00,
2013-09-11 05:20:00,70.3,66.2,30.11,SE,145,0.0,0.0,87,0.00,,---,0.00,VWS V14.01,2013-09-11 09:20:00,
2013-09-11 05:22:00,69.6,66.2,30.11,SE,145,0.0,0.0,89,0.00,,---,0.00,VWS V14.01,2013-09-11 09:22:00,
2013-09-11 05:25:00,70.3,66.2,30.11,SE,145,0.0,0.0,87,0.00,,---,0.00,VWS V14.01,2013-09-11 09:25:00,
2013-09-11 05:27:00,69.6,66.2,30.11,SE,145,0.0,0.0,89,0.00,,---,0.00,VWS V14.01,2013-09-11 09:27:00,
2013-09-11 05:30:00,70.3,66.2,30.11,SE,145,0.0,0.0,87,0.00,,---,0.00,VWS V14.01,2013-09-11 09:30:00,
2013-09-11 05:32:00,69.4,66.0,30.11,SE,145,0.0,0.0,89,0.00,,---,0.00,VWS V14.01,2013-09-11 09:32:00,
2013-09-11 05:35:00,70.1,66.4,30.11,SE,145,0.0,0.0,88,0.00,,---,0.00,VWS V14.01,2013-09-11 09:35:00,
2013-09-11 05:37:00,69.4,66.0,30.11,SE,145,0.0,0.0,89,0.00,,---,0.00,VWS V14.01,2013-09-11 09:37:00,
2013-09-11 05:40:00,70.1,66.4,30.11,SE,145,0.0,0.0,88,0.00,,---,0.00,VWS V14.01,2013-09-11 09:40:00,
2013-09-11 05:42:00,69.3,65.9,30.11,SE,145,0.0,0.0,89,0.00,,---,0.00,VWS V14.01,2013-09-11 09:42:00,
2013-09-11 05:45:00,69.9,66.2,30.11,SE,145,0.0,0.0,88,0.00,,---,0.00,VWS V14.01,2013-09-11 09:45:00,
2013-09-11 05:47:00,69.3,65.9,30.12,SE,145,0.0,0.0,89,0.00,,---,0.00,VWS V14.01,2013-09-11 09:47:00,
2013-09-11 05:50:00,69.9,66.2,30.11,SE,145,0.0,0.0,88,0.00,,---,0.00,VWS V14.01,2013-09-11 09:50:00,
2013-09-11 05:52:00,69.1,65.7,30.12,SE,145,0.0,0.0,89,0.00,,---,0.00,VWS V14.01,2013-09-11 09:52:00,
2013-09-11 05:55:00,69.9,66.2,30.11,SE,145,0.0,0.0,88,0.00,,---,0.00,VWS V14.01,2013-09-11 09:55:00,
2013-09-11 05:57:00,69.1,66.1,30.12,SE,145,0.0,0.0,90,0.00,,---,0.00,VWS V14.01,2013-09-11 09:57:00,
2013-09-11 06:00:00,69.9,66.2,30.11,SE,145,0.0,0.0,88,0.00,,---,0.00,VWS V14.01,2013-09-11 10:00:00,
2013-09-11 06:02:00,68.9,65.8,30.12,SE,145,0.0,0.0,90,0.00,,---,0.00,VWS V14.01,2013-09-11 10:02:00,
2013-09-11 06:05:00,69.8,66.1,30.11,SE,145,0.0,0.0,88,0.00,,---,0.00,VWS V14.01,2013-09-11 10:05:00,
2013-09-11 06:07:00,68.8,65.8,30.12,SE,145,0.0,0.0,90,0.00,,---,0.00,VWS V14.01,2013-09-11 10:07:00,
2013-09-11 06:10:00,69.8,66.1,30.11,SE,145,0.0,0.0,88,0.00,,---,0.00,VWS V14.01,2013-09-11 10:10:00,
2013-09-11 06:12:00,68.8,65.8,30.12,SE,145,0.0,0.0,90,0.00,,---,0.00,VWS V14.01,2013-09-11 10:12:00,
2013-09-11 06:15:00,69.8,66.1,30.11,SE,145,0.0,0.0,88,0.00,,---,0.00,VWS V14.01,2013-09-11 10:15:00,
2013-09-11 06:17:00,68.8,65.8,30.12,SE,145,0.0,0.0,90,0.00,,---,0.00,VWS V14.01,2013-09-11 10:17:00,
2013-09-11 06:20:00,69.6,65.9,30.11,SE,145,0.0,0.0,88,0.00,,---,0.00,VWS V14.01,2013-09-11 10:20:00,
2013-09-11 06:22:00,68.8,65.8,30.12,SE,145,0.0,0.0,90,0.00,,---,0.00,VWS V14.01,2013-09-11 10:22:00,
2013-09-11 06:25:00,69.6,66.2,30.11,SE,145,0.0,0.0,89,0.00,,---,0.00,VWS V14.01,2013-09-11 10:25:00,
2013-09-11 06:27:00,68.8,65.8,30.12,SE,145,0.0,0.0,90,0.00,,---,0.00,VWS V14.01,2013-09-11 10:27:00,
2013-09-11 06:30:00,69.4,66.0,30.11,SE,145,0.0,0.0,89,0.00,,---,0.00,VWS V14.01,2013-09-11 10:30:00,
2013-09-11 06:32:00,68.6,65.6,30.12,SE,145,0.0,0.0,90,0.00,,---,0.00,VWS V14.01,2013-09-11 10:32:00,
2013-09-11 06:35:00,69.4,66.0,30.11,SE,145,0.0,0.0,89,0.00,,---,0.00,VWS V14.01,2013-09-11 10:35:00,
2013-09-11 06:37:00,68.6,65.6,30.12,SE,145,0.0,0.0,90,0.00,,---,0.00,VWS V14.01,2013-09-11 10:37:00,
2013-09-11 06:40:00,69.3,65.9,30.11,SE,145,0.0,0.0,89,0.00,,---,0.00,VWS V14.01,2013-09-11 10:40:00,
2013-09-11 06:42:00,68.6,65.6,30.12,SE,145,0.0,0.0,90,0.00,,---,0.00,VWS V14.01,2013-09-11 10:42:00,
2013-09-11 06:45:00,69.3,65.9,30.12,SE,145,0.0,0.0,89,0.00,,---,0.00,VWS V14.01,2013-09-11 10:45:00,
2013-09-11 06:47:00,68.6,65.6,30.13,SE,145,0.0,0.0,90,0.00,,---,0.00,VWS V14.01,2013-09-11 10:47:00,
2013-09-11 06:52:00,68.4,65.4,30.13,SE,145,0.0,0.0,90,0.00,,---,0.00,VWS V14.01,2013-09-11 10:52:00,
2013-09-11 06:55:00,69.1,66.1,30.12,SE,145,0.0,0.0,90,0.00,,---,0.00,VWS V14.01,2013-09-11 10:55:00,
2013-09-11 06:57:00,68.4,65.7,30.13,SE,145,0.0,0.0,91,0.00,,---,0.00,VWS V14.01,2013-09-11 10:57:00,
2013-09-11 07:00:00,68.9,65.8,30.12,SE,145,0.0,0.0,90,0.00,,---,0.00,VWS V14.01,2013-09-11 11:00:00,
2013-09-11 07:02:00,68.4,65.7,30.13,SE,145,0.0,0.0,91,0.00,,---,0.00,VWS V14.01,2013-09-11 11:02:00,
2013-09-11 07:05:00,68.9,65.8,30.12,SE,145,0.0,0.0,90,0.00,,---,0.00,VWS V14.01,2013-09-11 11:05:00,
2013-09-11 07:07:00,68.4,65.7,30.13,SE,145,0.0,0.0,91,0.00,,---,0.00,VWS V14.01,2013-09-11 11:07:00,
2013-09-11 07:10:00,68.8,65.8,30.12,SE,145,0.0,0.0,90,0.00,,---,0.00,VWS V14.01,2013-09-11 11:10:00,
2013-09-11 07:12:00,68.4,65.7,30.13,SE,145,0.0,0.0,91,0.00,,---,0.00,VWS V14.01,2013-09-11 11:12:00,
2013-09-11 07:15:00,68.8,65.8,30.12,SE,145,0.0,0.0,90,0.00,,---,0.00,VWS V14.01,2013-09-11 11:15:00,
2013-09-11 07:17:00,68.4,65.7,30.13,SE,145,0.0,0.0,91,0.00,,---,0.00,VWS V14.01,2013-09-11 11:17:00,
2013-09-11 07:20:00,68.8,65.8,30.12,SE,145,0.0,0.0,90,0.00,,---,0.00,VWS V14.01,2013-09-11 11:20:00,
2013-09-11 07:22:00,68.4,65.7,30.13,SE,145,0.0,0.0,91,0.00,,---,0.00,VWS V14.01,2013-09-11 11:22:00,
2013-09-11 07:25:00,68.8,65.8,30.12,SE,145,0.0,0.0,90,0.00,,---,0.00,VWS V14.01,2013-09-11 11:25:00,
2013-09-11 07:27:00,68.4,65.7,30.13,SE,145,0.0,0.0,91,0.00,,---,0.00,VWS V14.01,2013-09-11 11:27:00,
2013-09-11 07:30:00,68.6,65.6,30.12,SE,145,0.0,0.0,90,0.00,,---,0.00,VWS V14.01,2013-09-11 11:30:00,
2013-09-11 07:32:00,68.6,65.9,30.14,SE,145,0.0,0.0,91,0.00,,---,0.00,VWS V14.01,2013-09-11 11:32:00,
2013-09-11 07:35:00,68.6,65.6,30.12,SE,145,0.0,0.0,90,0.00,,---,0.00,VWS V14.01,2013-09-11 11:35:00,
2013-09-11 07:37:00,68.6,65.9,30.14,SE,145,0.0,0.0,91,0.00,,---,0.00,VWS V14.01,2013-09-11 11:37:00,
2013-09-11 07:40:00,68.6,65.6,30.12,SE,145,0.0,0.0,90,0.00,,---,0.00,VWS V14.01,2013-09-11 11:40:00,
2013-09-11 07:42:00,68.8,66.1,30.14,SE,145,0.0,0.0,91,0.00,,---,0.00,VWS V14.01,2013-09-11 11:42:00,
2013-09-11 07:45:00,68.6,65.6,30.13,SE,145,0.0,0.0,90,0.00,,---,0.00,VWS V14.01,2013-09-11 11:45:00,
2013-09-11 07:47:00,68.9,66.2,30.14,SE,145,0.0,0.0,91,0.00,,---,0.00,VWS V14.01,2013-09-11 11:47:00,
2013-09-11 07:50:00,68.4,65.4,30.13,SE,145,0.0,0.0,90,0.00,,---,0.00,VWS V14.01,2013-09-11 11:50:00,
2013-09-11 07:52:00,69.1,66.1,30.14,SE,145,0.0,0.0,90,0.00,,---,0.00,VWS V14.01,2013-09-11 11:52:00,
2013-09-11 07:55:00,68.4,65.7,30.13,SE,145,0.0,0.0,91,0.00,,---,0.00,VWS V14.01,2013-09-11 11:55:00,
2013-09-11 07:57:00,69.6,66.2,30.14,SE,145,0.0,0.0,89,0.00,,---,0.00,VWS V14.01,2013-09-11 11:57:00,
2013-09-11 08:00:00,68.4,65.7,30.13,SE,145,0.0,0.0,91,0.00,,---,0.00,VWS V14.01,2013-09-11 12:00:00,
2013-09-11 08:02:00,69.8,66.4,30.14,SE,145,0.0,0.0,89,0.00,,---,0.00,VWS V14.01,2013-09-11 12:02:00,
2013-09-11 08:05:00,68.4,65.7,30.13,SE,145,0.0,0.0,91,0.00,,---,0.00,VWS V14.01,2013-09-11 12:05:00,
2013-09-11 08:07:00,70.1,66.4,30.14,SE,145,0.0,0.0,88,0.00,,---,0.00,VWS V14.01,2013-09-11 12:07:00,
2013-09-11 08:10:00,68.4,65.7,30.13,SE,145,0.0,0.0,91,0.00,,---,0.00,VWS V14.01,2013-09-11 12:10:00,
2013-09-11 08:15:00,68.4,65.7,30.13,SE,145,0.0,0.0,91,0.00,,---,0.00,VWS V14.01,2013-09-11 12:15:00,
2013-09-11 08:20:00,70.9,66.5,30.14,East,96,0.0,0.0,86,0.00,,---,0.00,VWS V14.01,2013-09-11 12:20:00,
2013-09-11 08:25:00,71.1,66.4,30.14,ESE,102,0.0,0.0,85,0.00,,---,0.00,VWS V14.01,2013-09-11 12:25:00,
2013-09-11 08:30:00,71.3,66.6,30.14,ESE,102,0.0,0.0,85,0.00,,---,0.00,VWS V14.01,2013-09-11 12:30:00,
2013-09-11 08:35:00,71.5,66.4,30.14,ESE,102,0.0,0.0,84,0.00,,---,0.00,VWS V14.01,2013-09-11 12:35:00,
2013-09-11 08:40:00,71.8,66.0,30.14,ESE,102,0.0,1.0,82,0.00,,---,0.00,VWS V14.01,2013-09-11 12:40:00,
2013-09-11 08:45:00,72.3,65.8,30.14,ESE,102,0.0,0.0,80,0.00,,---,0.00,VWS V14.01,2013-09-11 12:45:00,
2013-09-11 08:50:00,72.8,66.6,30.14,ESE,102,0.0,0.0,81,0.00,,---,0.00,VWS V14.01,2013-09-11 12:50:00,
2013-09-11 08:55:00,73.0,66.1,30.14,ESE,102,0.0,1.0,79,0.00,,---,0.00,VWS V14.01,2013-09-11 12:55:00,
2013-09-11 09:00:00,73.5,66.2,30.14,ESE,104,0.0,3.0,78,0.00,,---,0.00,VWS V14.01,2013-09-11 13:00:00,
2013-09-11 09:05:00,73.9,66.2,30.14,ESE,104,0.0,0.0,77,0.00,,---,0.00,VWS V14.01,2013-09-11 13:05:00,
2013-09-11 09:10:00,74.2,66.5,30.14,ESE,102,0.0,0.0,77,0.00,,---,0.00,VWS V14.01,2013-09-11 13:10:00,
2013-09-11 09:15:00,74.4,66.7,30.14,ESE,102,0.0,0.0,77,0.00,,---,0.00,VWS V14.01,2013-09-11 13:15:00,
2013-09-11 09:20:00,74.6,66.2,30.14,East,97,0.0,0.0,75,0.00,,---,0.00,VWS V14.01,2013-09-11 13:20:00,
2013-09-11 09:25:00,74.9,67.2,30.14,ESE,102,0.0,0.0,77,0.00,,---,0.00,VWS V14.01,2013-09-11 13:25:00,
2013-09-11 09:30:00,75.3,66.8,30.14,South,175,1.0,2.0,75,0.00,,---,0.00,VWS V14.01,2013-09-11 13:30:00,
2013-09-11 09:35:00,75.6,67.1,30.14,South,175,0.0,0.0,75,0.00,,---,0.00,VWS V14.01,2013-09-11 13:35:00,
2013-09-11 09:40:00,76.3,67.4,30.14,ESE,116,0.0,3.0,74,0.00,,---,0.00,VWS V14.01,2013-09-11 13:40:00,
2013-09-11 09:45:00,76.8,66.7,30.14,SE,127,0.0,1.0,71,0.00,,---,0.00,VWS V14.01,2013-09-11 13:45:00,
2013-09-11 09:50:00,77.4,68.1,30.14,SE,127,0.0,1.0,73,0.00,,---,0.00,VWS V14.01,2013-09-11 13:50:00,
2013-09-11 09:55:00,77.7,67.1,30.14,SE,126,0.0,0.0,70,0.00,,---,0.00,VWS V14.01,2013-09-11 13:55:00,
2013-09-11 10:00:00,78.3,67.7,30.14,SE,126,0.0,1.0,70,0.00,,---,0.00,VWS V14.01,2013-09-11 14:00:00,
2013-09-11 10:05:00,78.6,67.6,30.14,ESE,107,0.0,0.0,69,0.00,,---,0.00,VWS V14.01,2013-09-11 14:05:00,
2013-09-11 10:10:00,79.2,66.4,30.14,ESE,104,0.0,0.0,65,0.00,,---,0.00,VWS V14.01,2013-09-11 14:10:00,
2013-09-11 10:15:00,79.8,66.6,30.14,ESE,104,0.0,0.0,64,0.00,,---,0.00,VWS V14.01,2013-09-11 14:15:00,
2013-09-11 10:19:00,80.3,66.1,30.14,East,89,0.0,1.0,62,0.00,,---,0.00,VWS V14.01,2013-09-11 14:19:00,
2013-09-11 10:20:00,74.7,66.3,30.14,ESE,102,0.0,0.0,75,0.00,,---,0.00,VWS V14.01,2013-09-11 14:20:00,
2013-09-11 10:24:00,80.7,66.0,30.14,East,97,0.0,1.0,61,0.00,,---,0.00,VWS V14.01,2013-09-11 14:24:00,
2013-09-11 10:25:00,75.1,67.0,30.14,ESE,102,0.0,0.0,76,0.00,,---,0.00,VWS V14.01,2013-09-11 14:25:00,
2013-09-11 10:29:00,81.2,67.4,30.14,NE,41,0.0,0.0,63,0.00,,---,0.00,VWS V14.01,2013-09-11 14:29:00,
2013-09-11 10:30:00,75.4,66.5,30.14,South,175,0.0,2.0,74,0.00,,---,0.00,VWS V14.01,2013-09-11 14:30:00,
2013-09-11 10:34:00,81.6,67.3,30.13,East,89,0.0,0.0,62,0.00,,---,0.00,VWS V14.01,2013-09-11 14:34:00,
2013-09-11 10:35:00,75.8,66.9,30.14,ESE,120,0.0,2.0,74,0.00,,---,0.00,VWS V14.01,2013-09-11 14:35:00,
2013-09-11 10:39:00,82.4,67.1,30.13,SSE,161,0.0,1.0,60,0.00,,---,0.00,VWS V14.01,2013-09-11 14:39:00,
2013-09-11 10:40:00,76.5,67.6,30.14,SE,128,0.0,3.0,74,0.00,,---,0.00,VWS V14.01,2013-09-11 14:40:00,
2013-09-11 10:44:00,82.6,66.3,30.13,SE,145,0.0,1.0,58,0.00,,---,0.00,VWS V14.01,2013-09-11 14:44:00,
2013-09-11 10:45:00,77.0,66.9,30.14,SE,127,0.0,1.0,71,0.00,,---,0.00,VWS V14.01,2013-09-11 14:45:00,
2013-09-11 10:49:00,83.0,67.2,30.14,SE,145,0.0,0.0,59,0.00,,---,0.00,VWS V14.01,2013-09-11 14:49:00,
2013-09-11 10:50:00,77.4,66.4,30.14,SE,127,0.0,1.0,69,0.00,,---,0.00,VWS V14.01,2013-09-11 14:50:00,
2013-09-11 10:54:00,83.4,68.1,30.14,NE,41,0.0,0.0,60,0.00,,---,0.00,VWS V14.01,2013-09-11 14:54:00,
2013-09-11 10:55:00,77.9,66.9,30.14,SE,126,0.0,0.0,69,0.00,,---,0.00,VWS V14.01,2013-09-11 14:55:00,
2013-09-11 10:59:00,83.4,67.1,30.14,East,86,0.0,0.0,58,0.00,,---,0.00,VWS V14.01,2013-09-11 14:59:00,
2013-09-11 11:00:00,78.5,67.1,30.14,ESE,107,0.0,1.0,68,0.00,,---,0.00,VWS V14.01,2013-09-11 15:00:00,
2013-09-11 11:04:00,83.4,66.1,30.13,East,96,0.0,0.0,56,0.00,,---,0.00,VWS V14.01,2013-09-11 15:04:00,
2013-09-11 11:05:00,78.8,66.9,30.14,ESE,107,0.0,0.0,67,0.00,,---,0.00,VWS V14.01,2013-09-11 15:05:00,
2013-09-11 11:09:00,83.0,66.7,30.13,ESE,120,0.0,2.0,58,0.00,,---,0.00,VWS V14.01,2013-09-11 15:09:00,
2013-09-11 11:10:00,79.4,66.6,30.14,ESE,104,0.0,0.0,65,0.00,,---,0.00,VWS V14.01,2013-09-11 15:10:00,
2013-09-11 11:14:00,83.4,66.1,30.13,SE,124,0.0,0.0,56,0.00,,---,0.00,VWS V14.01,2013-09-11 15:14:00,
2013-09-11 11:15:00,79.9,67.5,30.14,ESE,104,0.0,0.0,66,0.00,,---,0.00,VWS V14.01,2013-09-11 15:15:00,
2013-09-11 11:19:00,83.4,66.1,30.13,East,95,0.0,3.0,56,0.00,,---,0.00,VWS V14.01,2013-09-11 15:19:00,
2013-09-11 11:20:00,80.3,65.6,30.14,East,93,0.0,5.0,61,0.00,,---,0.00,VWS V14.01,2013-09-11 15:20:00,
2013-09-11 11:24:00,83.4,66.6,30.13,East,95,0.0,0.0,57,0.00,,---,0.00,VWS V14.01,2013-09-11 15:24:00,
2013-09-11 11:25:00,80.9,66.2,30.14,NE,41,0.0,1.0,61,0.00,,---,0.00,VWS V14.01,2013-09-11 15:25:00,
2013-09-11 11:29:00,83.6,67.8,30.13,East,95,0.0,0.0,59,0.00,,---,0.00,VWS V14.01,2013-09-11 15:29:00,
2013-09-11 11:30:00,81.2,66.9,30.13,East,80,0.0,1.0,62,0.00,,---,0.00,VWS V14.01,2013-09-11 15:30:00,
2013-09-11 11:34:00,84.1,65.1,30.12,East,88,0.0,3.0,53,0.00,,---,0.00,VWS V14.01,2013-09-11 15:34:00,
2013-09-11 11:35:00,81.8,67.1,30.13,SSE,160,0.0,1.0,61,0.00,,---,0.00,VWS V14.01,2013-09-11 15:35:00,
2013-09-11 11:39:00,84.7,67.8,30.12,East,96,0.0,0.0,57,0.00,,---,0.00,VWS V14.01,2013-09-11 15:39:00,
2013-09-11 11:40:00,82.4,67.1,30.13,SE,145,0.0,2.0,60,0.00,,---,0.00,VWS V14.01,2013-09-11 15:40:00,
2013-09-11 11:44:00,84.9,65.3,30.12,ESE,104,0.0,0.0,52,0.00,,---,0.00,VWS V14.01,2013-09-11 15:44:00,
2013-09-11 11:45:00,82.6,66.3,30.14,SE,144,0.0,1.0,58,0.00,,---,0.00,VWS V14.01,2013-09-11 15:45:00,
2013-09-11 11:49:00,85.7,67.2,30.11,ESE,103,4.0,4.0,54,0.00,,---,0.00,VWS V14.01,2013-09-11 15:49:00,
2013-09-11 11:50:00,83.0,67.7,30.14,NE,37,0.0,2.0,60,0.00,,---,0.00,VWS V14.01,2013-09-11 15:50:00,
2013-09-11 11:54:00,85.7,67.2,30.11,East,93,0.0,0.0,54,0.00,,---,0.00,VWS V14.01,2013-09-11 15:54:00,
2013-09-11 11:55:00,83.4,67.1,30.14,NE,41,0.0,0.0,58,0.00,,---,0.00,VWS V14.01,2013-09-11 15:55:00,
2013-09-11 11:59:00,86.1,67.0,30.11,East,79,0.0,2.0,53,0.00,,---,0.00,VWS V14.01,2013-09-11 15:59:00,
2013-09-11 12:00:00,83.4,67.1,30.13,East,86,0.0,0.0,58,0.00,,---,0.00,VWS V14.01,2013-09-11 16:00:00,
2013-09-11 12:04:00,86.7,67.0,30.11,SSE,161,0.0,0.0,52,0.00,,---,0.00,VWS V14.01,2013-09-11 16:04:00,
2013-09-11 12:05:00,83.2,66.9,30.13,East,95,2.0,3.0,58,0.00,,---,0.00,VWS V14.01,2013-09-11 16:05:00,
2013-09-11 12:09:00,86.7,66.4,30.11,East,93,0.0,5.0,51,0.00,,---,0.00,VWS V14.01,2013-09-11 16:09:00,
2013-09-11 12:10:00,83.2,66.4,30.13,SE,124,0.0,2.0,57,0.00,,---,0.00,VWS V14.01,2013-09-11 16:10:00,
2013-09-11 12:14:00,87.0,66.7,30.11,East,95,0.0,3.0,51,0.00,,---,0.00,VWS V14.01,2013-09-11 16:14:00,
2013-09-11 12:15:00,83.4,66.6,30.13,ESE,112,0.0,3.0,57,0.00,,---,0.00,VWS V14.01,2013-09-11 16:15:00,
2013-09-11 12:19:00,87.0,68.4,30.10,East,79,0.0,0.0,54,0.00,,---,0.00,VWS V14.01,2013-09-11 16:19:00,
2013-09-11 12:20:00,83.4,66.6,30.13,East,95,0.0,3.0,57,0.00,,---,0.00,VWS V14.01,2013-09-11 16:20:00,
2013-09-11 12:24:00,87.4,67.1,30.10,East,85,0.0,1.0,51,0.00,,---,0.00,VWS V14.01,2013-09-11 16:24:00,
2013-09-11 12:25:00,83.4,67.1,30.13,East,95,0.0,0.0,58,0.00,,---,0.00,VWS V14.01,2013-09-11 16:25:00,
2013-09-11 12:29:00,87.8,68.6,30.10,North,356,0.0,0.0,53,0.00,,---,0.00,VWS V14.01,2013-09-11 16:29:00,
2013-09-11 12:30:00,83.8,68.0,30.12,SE,130,0.0,0.0,59,0.00,,---,0.00,VWS V14.01,2013-09-11 16:30:00,
2013-09-11 12:34:00,88.0,68.7,30.10,NE,48,0.0,0.0,53,0.00,,---,0.00,VWS V14.01,2013-09-11 16:34:00,
2013-09-11 12:35:00,84.1,65.1,30.12,East,96,0.0,4.0,53,0.00,,---,0.00,VWS V14.01,2013-09-11 16:35:00,
2013-09-11 12:39:00,88.4,68.0,30.10,NE,48,0.0,0.0,51,0.00,,---,0.00,VWS V14.01,2013-09-11 16:39:00,
2013-09-11 12:40:00,84.7,65.7,30.12,ESE,117,0.0,0.0,53,0.00,,---,0.00,VWS V14.01,2013-09-11 16:40:00,
2013-09-11 12:44:00,88.8,68.4,30.10,East,99,0.0,5.0,51,0.00,,---,0.00,VWS V14.01,2013-09-11 16:44:00,
2013-09-11 12:45:00,85.3,67.3,30.11,ESE,104,0.0,0.0,55,0.00,,---,0.00,VWS V14.01,2013-09-11 16:45:00,
2013-09-11 12:49:00,88.8,68.9,30.10,East,99,0.0,0.0,52,0.00,,---,0.00,VWS V14.01,2013-09-11 16:49:00,
2013-09-11 12:50:00,85.5,65.3,30.11,East,95,0.0,4.0,51,0.00,,---,0.00,VWS V14.01,2013-09-11 16:50:00,
2013-09-11 12:54:00,88.6,67.6,30.10,ESE,106,0.0,5.0,50,0.00,,---,0.00,VWS V14.01,2013-09-11 16:54:00,
2013-09-11 12:55:00,85.7,66.6,30.11,SE,134,0.0,0.0,53,0.00,,---,0.00,VWS V14.01,2013-09-11 16:55:00,
2013-09-11 12:59:00,88.6,68.7,30.10,NE,42,0.0,1.0,52,0.00,,---,0.00,VWS V14.01,2013-09-11 16:59:00,
2013-09-11 13:00:00,86.3,67.2,30.11,SSE,162,0.0,2.0,53,0.00,,---,0.00,VWS V14.01,2013-09-11 17:00:00,
2013-09-11 13:04:00,88.6,69.3,30.09,NE,42,0.0,0.0,53,0.00,,---,0.00,VWS V14.01,2013-09-11 17:04:00,
2013-09-11 13:05:00,86.7,66.4,30.11,ESE,102,0.0,2.0,51,0.00,,---,0.00,VWS V14.01,2013-09-11 17:05:00,
2013-09-11 13:09:00,88.8,66.6,30.09,ESE,116,0.0,0.0,48,0.00,,---,0.00,VWS V14.01,2013-09-11 17:09:00,
2013-09-11 13:10:00,87.0,67.8,30.11,ESE,113,3.0,5.0,53,0.00,,---,0.00,VWS V14.01,2013-09-11 17:10:00,
2013-09-11 13:14:00,89.0,69.1,30.09,ESE,116,0.0,0.0,52,0.00,,---,0.00,VWS V14.01,2013-09-11 17:14:00,
2013-09-11 13:15:00,87.0,67.3,30.10,ENE,71,0.0,3.0,52,0.00,,---,0.00,VWS V14.01,2013-09-11 17:15:00,
2013-09-11 13:19:00,89.0,67.4,30.09,SSE,148,0.0,3.0,49,0.00,,---,0.00,VWS V14.01,2013-09-11 17:19:00,
2013-09-11 13:20:00,87.2,66.9,30.10,East,85,0.0,0.0,51,0.00,,---,0.00,VWS V14.01,2013-09-11 17:20:00,
2013-09-11 13:24:00,88.8,68.9,30.09,SSE,147,0.0,0.0,52,0.00,,---,0.00,VWS V14.01,2013-09-11 17:24:00,
2013-09-11 13:25:00,87.6,68.9,30.10,ENE,61,0.0,1.0,54,0.00,,---,0.00,VWS V14.01,2013-09-11 17:25:00,
2013-09-11 13:29:00,88.8,68.9,30.09,SSE,147,0.0,0.0,52,0.00,,---,0.00,VWS V14.01,2013-09-11 17:29:00,
2013-09-11 13:30:00,87.8,67.4,30.10,North,0,0.0,0.0,51,0.00,,---,0.00,VWS V14.01,2013-09-11 17:30:00,
2013-09-11 13:34:00,88.4,69.1,30.08,NNE,18,0.0,0.0,53,0.00,,---,0.00,VWS V14.01,2013-09-11 17:34:00,
2013-09-11 13:35:00,88.0,68.7,30.10,NE,48,0.0,0.0,53,0.00,,---,0.00,VWS V14.01,2013-09-11 17:35:00,
2013-09-11 13:39:00,88.8,67.8,30.08,East,90,0.0,0.0,50,0.00,,---,0.00,VWS V14.01,2013-09-11 17:39:00,
2013-09-11 13:40:00,88.6,68.2,30.10,SSE,161,0.0,0.0,51,0.00,,---,0.00,VWS V14.01,2013-09-11 17:40:00,
2013-09-11 13:44:00,89.3,68.2,30.08,SE,127,2.0,7.0,50,0.00,,---,0.00,VWS V14.01,2013-09-11 17:44:00,
2013-09-11 13:45:00,88.8,68.4,30.10,East,99,0.0,5.0,51,0.00,,---,0.00,VWS V14.01,2013-09-11 17:45:00,
2013-09-11 13:49:00,89.7,66.8,30.08,ENE,75,0.0,7.0,47,0.00,,---,0.00,VWS V14.01,2013-09-11 17:49:00,
2013-09-11 13:50:00,88.6,69.3,30.10,NE,45,0.0,0.0,53,0.00,,---,0.00,VWS V14.01,2013-09-11 17:50:00,
2013-09-11 13:54:00,89.9,67.0,30.08,East,93,0.0,5.0,47,0.00,,---,0.00,VWS V14.01,2013-09-11 17:54:00,
2013-09-11 13:55:00,88.6,67.0,30.10,ESE,106,0.0,5.0,49,0.00,,---,0.00,VWS V14.01,2013-09-11 17:55:00,
2013-09-11 13:59:00,89.9,67.6,30.08,East,99,0.0,3.0,48,0.00,,---,0.00,VWS V14.01,2013-09-11 17:59:00,
2013-09-11 14:00:00,88.6,69.3,30.09,NE,42,0.0,1.0,53,0.00,,---,0.00,VWS V14.01,2013-09-11 18:00:00,
2013-09-11 14:04:00,90.7,65.8,30.07,ESE,116,0.0,0.0,44,0.00,,---,0.00,VWS V14.01,2013-09-11 18:04:00,
2013-09-11 14:05:00,88.6,68.7,30.09,NE,41,0.0,0.0,52,0.00,,---,0.00,VWS V14.01,2013-09-11 18:05:00,
2013-09-11 14:09:00,91.0,68.0,30.07,East,80,0.0,0.0,47,0.00,,---,0.00,VWS V14.01,2013-09-11 18:09:00,
2013-09-11 14:10:00,88.8,68.4,30.09,ESE,116,0.0,0.0,51,0.00,,---,0.00,VWS V14.01,2013-09-11 18:10:00,
2013-09-11 14:14:00,90.7,63.1,30.07,SSW,205,0.0,0.0,40,0.00,,---,0.00,VWS V14.01,2013-09-11 18:14:00,
2013-09-11 14:15:00,89.0,68.5,30.09,ESE,117,0.0,0.0,51,0.00,,---,0.00,VWS V14.01,2013-09-11 18:15:00,
2013-09-11 14:19:00,90.3,64.8,30.06,SSW,205,0.0,0.0,43,0.00,,---,0.00,VWS V14.01,2013-09-11 18:19:00,
2013-09-11 14:20:00,89.0,68.5,30.09,SSE,147,0.0,3.0,51,0.00,,---,0.00,VWS V14.01,2013-09-11 18:20:00,
2013-09-11 14:24:00,89.5,65.4,30.06,ENE,69,0.0,0.0,45,0.00,,---,0.00,VWS V14.01,2013-09-11 18:24:00,
2013-09-11 14:25:00,88.8,68.4,30.09,SSE,147,0.0,0.0,51,0.00,,---,0.00,VWS V14.01,2013-09-11 18:25:00,
2013-09-11 14:29:00,88.6,65.2,30.06,ENE,66,0.0,0.0,46,0.00,,---,0.00,VWS V14.01,2013-09-11 18:29:00,
2013-09-11 14:30:00,88.6,67.0,30.08,SE,126,0.0,0.0,49,0.00,,---,0.00,VWS V14.01,2013-09-11 18:30:00,
2013-09-11 14:34:00,87.8,68.6,30.06,ENE,68,0.0,0.0,53,0.00,,---,0.00,VWS V14.01,2013-09-11 18:34:00,
2013-09-11 14:35:00,88.6,68.2,30.08,East,90,0.0,0.0,51,0.00,,---,0.00,VWS V14.01,2013-09-11 18:35:00,
2013-09-11 14:39:00,87.2,69.1,30.06,ENE,68,0.0,0.0,55,0.00,,---,0.00,VWS V14.01,2013-09-11 18:39:00,
2013-09-11 14:40:00,88.8,67.8,30.08,SSW,198,0.0,0.0,50,0.00,,---,0.00,VWS V14.01,2013-09-11 18:40:00,
2013-09-11 14:44:00,86.5,69.5,30.06,ESE,102,0.0,0.0,57,0.00,,---,0.00,VWS V14.01,2013-09-11 18:44:00,
2013-09-11 14:45:00,89.7,68.6,30.08,East,99,5.0,7.0,50,0.00,,---,0.00,VWS V14.01,2013-09-11 18:45:00,
2013-09-11 14:49:00,86.1,70.1,30.05,ESE,112,1.0,1.0,59,0.00,,---,0.00,VWS V14.01,2013-09-11 18:49:00,
2013-09-11 14:50:00,89.9,67.0,30.08,ENE,76,0.0,7.0,47,0.00,,---,0.00,VWS V14.01,2013-09-11 18:50:00,
2013-09-11 14:54:00,85.7,67.7,30.05,ESE,104,1.0,4.0,55,0.00,,---,0.00,VWS V14.01,2013-09-11 18:54:00,
2013-09-11 14:55:00,89.7,68.6,30.08,East,95,0.0,5.0,50,0.00,,---,0.00,VWS V14.01,2013-09-11 18:55:00,
2013-09-11 14:59:00,85.5,68.5,30.05,SSE,158,0.0,6.0,57,0.00,,---,0.00,VWS V14.01,2013-09-11 18:59:00,
2013-09-11 15:00:00,90.3,68.0,30.07,East,99,0.0,3.0,48,0.00,,---,0.00,VWS V14.01,2013-09-11 19:00:00,
2013-09-11 15:04:00,85.5,69.1,30.05,ESE,113,0.0,3.0,58,0.00,,---,0.00,VWS V14.01,2013-09-11 19:04:00,
2013-09-11 15:05:00,90.7,66.5,30.07,ESE,116,0.0,0.0,45,0.00,,---,0.00,VWS V14.01,2013-09-11 19:05:00,
2013-09-11 15:09:00,85.3,68.3,30.05,ESE,117,2.0,3.0,57,0.00,,---,0.00,VWS V14.01,2013-09-11 19:09:00,
2013-09-11 15:10:00,90.7,66.5,30.07,South,172,0.0,7.0,45,0.00,,---,0.00,VWS V14.01,2013-09-11 19:10:00,
2013-09-11 15:14:00,85.1,68.7,30.05,South,179,0.0,2.0,58,0.00,,---,0.00,VWS V14.01,2013-09-11 19:14:00,
2013-09-11 15:15:00,90.5,64.3,30.06,SSW,205,0.0,0.0,42,0.00,,---,0.00,VWS V14.01,2013-09-11 19:15:00,
2013-09-11 15:19:00,84.9,68.5,30.05,SE,131,1.0,5.0,58,0.00,,---,0.00,VWS V14.01,2013-09-11 19:19:00,
2013-09-11 15:20:00,89.9,64.4,30.06,ENE,69,0.0,1.0,43,0.00,,---,0.00,VWS V14.01,2013-09-11 19:20:00,
2013-09-11 15:24:00,84.9,68.5,30.05,ESE,114,0.0,2.0,58,0.00,,---,0.00,VWS V14.01,2013-09-11 19:24:00,
2013-09-11 15:25:00,89.3,67.7,30.06,ENE,69,0.0,0.0,49,0.00,,---,0.00,VWS V14.01,2013-09-11 19:25:00,
2013-09-11 15:29:00,84.7,69.8,30.05,ESE,106,0.0,0.0,61,0.00,,---,0.00,VWS V14.01,2013-09-11 19:29:00,
2013-09-11 15:30:00,88.2,67.8,30.06,ENE,68,0.0,0.0,51,0.00,,---,0.00,VWS V14.01,2013-09-11 19:30:00,
2013-09-11 15:34:00,84.7,68.8,30.05,East,85,1.0,2.0,59,0.00,,---,0.00,VWS V14.01,2013-09-11 19:34:00,
2013-09-11 15:35:00,87.6,68.4,30.06,ENE,68,0.0,0.0,53,0.00,,---,0.00,VWS V14.01,2013-09-11 19:35:00,
2013-09-11 15:39:00,84.9,68.5,30.05,SE,140,0.0,0.0,58,0.00,,---,0.00,VWS V14.01,2013-09-11 19:39:00,
2013-09-11 15:40:00,87.0,69.4,30.06,ESE,102,0.0,0.0,56,0.00,,---,0.00,VWS V14.01,2013-09-11 19:40:00,
2013-09-11 15:44:00,85.1,68.2,30.05,ESE,112,0.0,2.0,57,0.00,,---,0.00,VWS V14.01,2013-09-11 19:44:00,
2013-09-11 15:45:00,86.3,69.8,30.05,ESE,102,0.0,0.0,58,0.00,,---,0.00,VWS V14.01,2013-09-11 19:45:00,
2013-09-11 15:49:00,85.3,68.3,30.05,ESE,104,0.0,0.0,57,0.00,,---,0.00,VWS V14.01,2013-09-11 19:49:00,
2013-09-11 15:50:00,85.9,69.9,30.05,ESE,112,0.0,1.0,59,0.00,,---,0.00,VWS V14.01,2013-09-11 19:50:00,
2013-09-11 15:54:00,85.1,68.7,30.05,ESE,123,0.0,3.0,58,0.00,,---,0.00,VWS V14.01,2013-09-11 19:54:00,
2013-09-11 15:55:00,85.7,68.2,30.05,SSE,148,0.0,4.0,56,0.00,,---,0.00,VWS V14.01,2013-09-11 19:55:00,
2013-09-11 15:59:00,85.1,69.2,30.05,SE,145,0.0,1.0,59,0.00,,---,0.00,VWS V14.01,2013-09-11 19:59:00,
2013-09-11 16:00:00,85.5,68.0,30.05,SW,217,0.0,6.0,56,0.00,,---,0.00,VWS V14.01,2013-09-11 20:00:00,
2013-09-11 16:04:00,85.3,69.8,30.04,SE,144,0.0,0.0,60,0.00,,---,0.00,VWS V14.01,2013-09-11 20:04:00,
2013-09-11 16:05:00,85.5,68.0,30.05,ESE,106,1.0,3.0,56,0.00,,---,0.00,VWS V14.01,2013-09-11 20:05:00,
2013-09-11 16:09:00,85.1,70.6,30.04,SE,128,0.0,2.0,62,0.00,,---,0.00,VWS V14.01,2013-09-11 20:09:00,
2013-09-11 16:10:00,85.3,67.8,30.05,ESE,117,0.0,3.0,56,0.00,,---,0.00,VWS V14.01,2013-09-11 20:10:00,
2013-09-11 16:14:00,85.1,67.7,30.04,East,99,0.0,0.0,56,0.00,,---,0.00,VWS V14.01,2013-09-11 20:14:00,
2013-09-11 16:15:00,85.1,68.2,30.05,South,171,0.0,2.0,57,0.00,,---,0.00,VWS V14.01,2013-09-11 20:15:00,
2013-09-11 16:19:00,85.1,69.2,30.03,SE,137,0.0,0.0,59,0.00,,---,0.00,VWS V14.01,2013-09-11 20:19:00,
2013-09-11 16:20:00,84.9,69.0,30.05,ESE,117,0.0,5.0,59,0.00,,---,0.00,VWS V14.01,2013-09-11 20:20:00,
2013-09-11 16:24:00,84.9,67.5,30.03,SE,140,0.0,0.0,56,0.00,,---,0.00,VWS V14.01,2013-09-11 20:24:00,
2013-09-11 16:25:00,84.7,68.3,30.05,ESE,106,0.0,2.0,58,0.00,,---,0.00,VWS V14.01,2013-09-11 20:25:00,
2013-09-11 16:29:00,84.9,67.5,30.03,ESE,112,0.0,2.0,56,0.00,,---,0.00,VWS V14.01,2013-09-11 20:29:00,
2013-09-11 16:30:00,84.7,69.8,30.05,SW,230,0.0,2.0,61,0.00,,---,0.00,VWS V14.01,2013-09-11 20:30:00,
2013-09-11 16:34:00,84.7,69.3,30.03,ESE,119,0.0,0.0,60,0.00,,---,0.00,VWS V14.01,2013-09-11 20:34:00,
2013-09-11 16:35:00,84.7,68.8,30.05,SE,138,0.0,2.0,59,0.00,,---,0.00,VWS V14.01,2013-09-11 20:35:00,
2013-09-11 16:39:00,84.5,68.1,30.03,ESE,120,0.0,0.0,58,0.00,,---,0.00,VWS V14.01,2013-09-11 20:39:00,
2013-09-11 16:40:00,84.9,68.5,30.05,SE,140,1.0,8.0,58,0.00,,---,0.00,VWS V14.01,2013-09-11 20:40:00,
2013-09-11 16:44:00,84.1,68.7,30.03,ESE,120,0.0,3.0,60,0.00,,---,0.00,VWS V14.01,2013-09-11 20:44:00,
2013-09-11 16:45:00,85.1,68.2,30.05,SE,126,0.0,2.0,57,0.00,,---,0.00,VWS V14.01,2013-09-11 20:45:00,
2013-09-11 16:49:00,83.8,69.4,30.03,ESE,120,0.0,0.0,62,0.00,,---,0.00,VWS V14.01,2013-09-11 20:49:00,
2013-09-11 16:50:00,85.3,68.4,30.05,South,175,0.0,0.0,57,0.00,,---,0.00,VWS V14.01,2013-09-11 20:50:00,
2013-09-11 16:54:00,83.2,69.3,30.03,SE,130,0.0,1.0,63,0.00,,---,0.00,VWS V14.01,2013-09-11 20:54:00,
2013-09-11 16:55:00,85.1,69.7,30.05,ESE,123,0.0,3.0,60,0.00,,---,0.00,VWS V14.01,2013-09-11 20:55:00,
2013-09-11 16:59:00,83.0,69.1,30.03,SE,130,0.0,0.0,63,0.00,,---,0.00,VWS V14.01,2013-09-11 20:59:00,
2013-09-11 17:00:00,85.1,69.7,30.04,SE,145,0.0,1.0,60,0.00,,---,0.00,VWS V14.01,2013-09-11 21:00:00,
2013-09-11 17:04:00,82.8,69.4,30.03,SE,130,0.0,0.0,64,0.00,,---,0.00,VWS V14.01,2013-09-11 21:04:00,
2013-09-11 17:05:00,85.1,70.2,30.04,SE,144,0.0,0.0,61,0.00,,---,0.00,VWS V14.01,2013-09-11 21:05:00,
2013-09-11 17:09:00,82.6,69.7,30.03,SE,130,0.0,0.0,65,0.00,,---,0.00,VWS V14.01,2013-09-11 21:09:00,
2013-09-11 17:10:00,85.1,69.2,30.04,SE,130,0.0,2.0,59,0.00,,---,0.00,VWS V14.01,2013-09-11 21:10:00,
2013-09-11 17:14:00,82.2,68.8,30.03,SE,130,0.0,0.0,64,0.00,,---,0.00,VWS V14.01,2013-09-11 21:14:00,
2013-09-11 17:15:00,85.1,68.2,30.03,SE,137,0.0,0.0,57,0.00,,---,0.00,VWS V14.01,2013-09-11 21:15:00,
2013-09-11 17:19:00,82.0,69.1,30.03,SE,130,0.0,0.0,65,0.00,,---,0.00,VWS V14.01,2013-09-11 21:19:00,
2013-09-11 17:20:00,85.1,67.7,30.03,SE,128,0.0,3.0,56,0.00,,---,0.00,VWS V14.01,2013-09-11 21:20:00,
2013-09-11 17:24:00,81.8,70.2,30.03,SE,130,0.0,0.0,68,0.00,,---,0.00,VWS V14.01,2013-09-11 21:24:00,
2013-09-11 17:25:00,84.9,67.5,30.03,SE,138,0.0,0.0,56,0.00,,---,0.00,VWS V14.01,2013-09-11 21:25:00,
2013-09-11 17:29:00,81.8,69.3,30.03,SE,130,0.0,0.0,66,0.00,,---,0.00,VWS V14.01,2013-09-11 21:29:00,
2013-09-11 17:30:00,84.7,67.3,30.03,ESE,119,0.0,2.0,56,0.00,,---,0.00,VWS V14.01,2013-09-11 21:30:00,
2013-09-11 17:34:00,81.6,69.2,30.02,SE,128,0.0,0.0,66,0.00,,---,0.00,VWS V14.01,2013-09-11 21:34:00,
2013-09-11 17:35:00,84.5,68.1,30.03,ESE,119,0.0,0.0,58,0.00,,---,0.00,VWS V14.01,2013-09-11 21:35:00,
2013-09-11 17:39:00,81.1,69.1,30.02,SE,128,0.0,0.0,67,0.00,,---,0.00,VWS V14.01,2013-09-11 21:39:00,
2013-09-11 17:40:00,84.3,69.4,30.03,ESE,120,0.0,0.0,61,0.00,,---,0.00,VWS V14.01,2013-09-11 21:40:00,
2013-09-11 17:44:00,80.9,68.9,30.02,SE,128,0.0,0.0,67,0.00,,---,0.00,VWS V14.01,2013-09-11 21:44:00,
2013-09-11 17:45:00,84.0,69.6,30.03,ESE,120,0.0,3.0,62,0.00,,---,0.00,VWS V14.01,2013-09-11 21:45:00,
2013-09-11 17:49:00,80.7,68.7,30.02,SE,128,0.0,0.0,67,0.00,,---,0.00,VWS V14.01,2013-09-11 21:49:00,
2013-09-11 17:50:00,83.4,69.0,30.03,ESE,120,0.0,0.0,62,0.00,,---,0.00,VWS V14.01,2013-09-11 21:50:00,
2013-09-11 17:54:00,80.5,68.5,30.02,SE,128,0.0,0.0,67,0.00,,---,0.00,VWS V14.01,2013-09-11 21:54:00,
2013-09-11 17:55:00,83.0,68.7,30.03,SE,130,0.0,1.0,62,0.00,,---,0.00,VWS V14.01,2013-09-11 21:55:00,
2013-09-11 17:59:00,80.3,67.5,30.02,SE,128,0.0,0.0,65,0.00,,---,0.00,VWS V14.01,2013-09-11 21:59:00,
2013-09-11 18:00:00,82.8,68.9,30.03,SE,130,0.0,0.0,63,0.00,,---,0.00,VWS V14.01,2013-09-11 22:00:00,
2013-09-11 18:04:00,80.1,67.7,30.02,SE,128,0.0,0.0,66,0.00,,---,0.00,VWS V14.01,2013-09-11 22:04:00,
2013-09-11 18:05:00,82.6,69.7,30.03,SE,130,0.0,0.0,65,0.00,,---,0.00,VWS V14.01,2013-09-11 22:05:00,
2013-09-11 18:09:00,79.8,67.9,30.02,SE,128,0.0,0.0,67,0.00,,---,0.00,VWS V14.01,2013-09-11 22:09:00,
2013-09-11 18:10:00,82.4,69.5,30.03,SE,130,0.0,0.0,65,0.00,,---,0.00,VWS V14.01,2013-09-11 22:10:00,
2013-09-11 18:14:00,79.8,67.9,30.02,SE,128,0.0,0.0,67,0.00,,---,0.00,VWS V14.01,2013-09-11 22:14:00,
2013-09-11 18:15:00,82.2,68.8,30.03,SE,130,0.0,0.0,64,0.00,,---,0.00,VWS V14.01,2013-09-11 22:15:00,
2013-09-11 18:19:00,79.6,68.1,30.02,SE,128,0.0,0.0,68,0.00,,---,0.00,VWS V14.01,2013-09-11 22:19:00,
2013-09-11 18:20:00,81.8,69.3,30.03,SE,130,0.0,0.0,66,0.00,,---,0.00,VWS V14.01,2013-09-11 22:20:00,
2013-09-11 18:24:00,79.4,68.8,30.02,SE,128,0.0,0.0,70,0.00,,---,0.00,VWS V14.01,2013-09-11 22:24:00,
2013-09-11 18:25:00,81.8,70.2,30.03,SE,130,0.0,0.0,68,0.00,,---,0.00,VWS V14.01,2013-09-11 22:25:00,
2013-09-11 18:29:00,79.4,68.8,30.02,SE,128,0.0,0.0,70,0.00,,---,0.00,VWS V14.01,2013-09-11 22:29:00,
2013-09-11 18:30:00,81.6,69.2,30.02,SE,128,0.0,0.0,66,0.00,,---,0.00,VWS V14.01,2013-09-11 22:30:00,
2013-09-11 18:34:00,79.2,69.4,30.02,SE,128,0.0,0.0,72,0.00,,---,0.00,VWS V14.01,2013-09-11 22:34:00,
2013-09-11 18:35:00,81.1,68.7,30.02,SE,128,0.0,0.0,66,0.00,,---,0.00,VWS V14.01,2013-09-11 22:35:00,
2013-09-11 18:39:00,79.0,69.2,30.02,SE,128,0.0,0.0,72,0.00,,---,0.00,VWS V14.01,2013-09-11 22:39:00,
2013-09-11 18:40:00,81.1,69.1,30.02,SE,128,0.0,0.0,67,0.00,,---,0.00,VWS V14.01,2013-09-11 22:40:00,
2013-09-11 18:44:00,78.6,68.8,30.02,SE,128,0.0,0.0,72,0.00,,---,0.00,VWS V14.01,2013-09-11 22:44:00,
2013-09-11 18:45:00,80.7,68.7,30.02,SE,128,0.0,0.0,67,0.00,,---,0.00,VWS V14.01,2013-09-11 22:45:00,
2013-09-11 18:49:00,78.5,69.1,30.02,SE,128,0.0,0.0,73,0.00,,---,0.00,VWS V14.01,2013-09-11 22:49:00,
2013-09-11 18:50:00,80.5,68.1,30.02,SE,128,0.0,0.0,66,0.00,,---,0.00,VWS V14.01,2013-09-11 22:50:00,
2013-09-11 18:54:00,78.3,69.3,30.02,SE,128,0.0,0.0,74,0.00,,---,0.00,VWS V14.01,2013-09-11 22:54:00,
2013-09-11 18:55:00,80.3,67.5,30.02,SE,128,0.0,0.0,65,0.00,,---,0.00,VWS V14.01,2013-09-11 22:55:00,
2013-09-11 18:59:00,78.1,69.1,30.02,SE,128,0.0,0.0,74,0.00,,---,0.00,VWS V14.01,2013-09-11 22:59:00,
2013-09-11 19:00:00,80.3,67.5,30.02,SE,128,0.0,0.0,65,0.00,,---,0.00,VWS V14.01,2013-09-11 23:00:00,
2013-09-11 19:04:00,77.9,69.3,30.01,SE,128,0.0,0.0,75,0.00,,---,0.00,VWS V14.01,2013-09-11 23:04:00,
2013-09-11 19:05:00,80.1,68.2,30.02,SE,128,0.0,0.0,67,0.00,,---,0.00,VWS V14.01,2013-09-11 23:05:00,
2013-09-11 19:09:00,77.7,69.2,30.01,SE,128,0.0,0.0,75,0.00,,---,0.00,VWS V14.01,2013-09-11 23:09:00,
2013-09-11 19:10:00,79.8,67.9,30.02,SE,128,0.0,0.0,67,0.00,,---,0.00,VWS V14.01,2013-09-11 23:10:00,
2013-09-11 19:14:00,77.6,69.4,30.01,SE,128,0.0,0.0,76,0.00,,---,0.00,VWS V14.01,2013-09-11 23:14:00,
2013-09-11 19:15:00,79.6,68.1,30.02,SE,128,0.0,0.0,68,0.00,,---,0.00,VWS V14.01,2013-09-11 23:15:00,
2013-09-11 19:19:00,77.4,68.9,30.02,SE,128,0.0,0.0,75,0.00,,---,0.00,VWS V14.01,2013-09-11 23:19:00,
2013-09-11 19:20:00,79.6,67.7,30.02,SE,128,0.0,0.0,67,0.00,,---,0.00,VWS V14.01,2013-09-11 23:20:00,
2013-09-11 19:24:00,77.0,68.5,30.02,SE,128,0.0,0.0,75,0.00,,---,0.00,VWS V14.01,2013-09-11 23:24:00,
2013-09-11 19:25:00,79.4,68.8,30.02,SE,128,0.0,0.0,70,0.00,,---,0.00,VWS V14.01,2013-09-11 23:25:00,
2013-09-11 19:29:00,76.8,68.7,30.02,SE,128,0.0,0.0,76,0.00,,---,0.00,VWS V14.01,2013-09-11 23:29:00,
2013-09-11 19:30:00,79.2,68.6,30.02,SE,128,0.0,0.0,70,0.00,,---,0.00,VWS V14.01,2013-09-11 23:30:00,
2013-09-11 19:34:00,76.7,68.9,30.02,SE,128,0.0,0.0,77,0.00,,---,0.00,VWS V14.01,2013-09-11 23:34:00,
2013-09-11 19:35:00,79.2,69.4,30.02,SE,128,0.0,0.0,72,0.00,,---,0.00,VWS V14.01,2013-09-11 23:35:00,
2013-09-11 19:39:00,76.5,68.4,30.02,SE,128,0.0,0.0,76,0.00,,---,0.00,VWS V14.01,2013-09-11 23:39:00,
2013-09-11 19:40:00,78.8,69.0,30.02,SE,128,0.0,0.0,72,0.00,,---,0.00,VWS V14.01,2013-09-11 23:40:00,
2013-09-11 19:44:00,76.3,68.2,30.02,SE,128,0.0,0.0,76,0.00,,---,0.00,VWS V14.01,2013-09-11 23:44:00,
2013-09-11 19:45:00,78.6,68.8,30.02,SE,128,0.0,0.0,72,0.00,,---,0.00,VWS V14.01,2013-09-11 23:45:00,
2013-09-11 19:49:00,76.1,68.4,30.02,SE,128,0.0,0.0,77,0.00,,---,0.00,VWS V14.01,2013-09-11 23:49:00,
2013-09-11 19:50:00,78.5,69.1,30.02,SE,128,0.0,0.0,73,0.00,,---,0.00,VWS V14.01,2013-09-11 23:50:00,
2013-09-11 19:54:00,76.0,68.3,30.02,SE,128,0.0,0.0,77,0.00,,---,0.00,VWS V14.01,2013-09-11 23:54:00,
2013-09-11 19:55:00,78.3,69.3,30.02,SE,128,0.0,0.0,74,0.00,,---,0.00,VWS V14.01,2013-09-11 23:55:00,
2013-09-11 19:59:00,75.8,68.1,30.02,SE,128,0.0,0.0,77,0.00,,---,0.00,VWS V14.01,2013-09-11 23:59:00,
2013-09-11 20:00:00,78.1,69.1,30.01,SE,128,0.0,0.0,74,0.00,,---,0.00,VWS V14.01,2013-09-12 00:00:00,
2013-09-11 20:04:00,75.6,68.3,30.02,SE,128,0.0,0.0,78,0.00,,---,0.00,VWS V14.01,2013-09-12 00:04:00,
2013-09-11 20:05:00,77.9,69.3,30.01,SE,128,0.0,0.0,75,0.00,,---,0.00,VWS V14.01,2013-09-12 00:05:00,
2013-09-11 20:09:00,75.3,68.0,30.02,SE,128,0.0,0.0,78,0.00,,---,0.00,VWS V14.01,2013-09-12 00:09:00,
2013-09-11 20:10:00,77.6,68.7,30.01,SE,128,0.0,0.0,74,0.00,,---,0.00,VWS V14.01,2013-09-12 00:10:00,
2013-09-11 20:14:00,75.1,67.8,30.02,SE,128,0.0,0.0,78,0.00,,---,0.00,VWS V14.01,2013-09-12 00:14:00,
2013-09-11 20:15:00,77.4,68.9,30.02,SE,128,0.0,0.0,75,0.00,,---,0.00,VWS V14.01,2013-09-12 00:15:00,
2013-09-11 20:19:00,75.1,67.8,30.02,SE,128,0.0,0.0,78,0.00,,---,0.00,VWS V14.01,2013-09-12 00:19:00,
2013-09-11 20:20:00,77.2,68.7,30.02,SE,128,0.0,0.0,75,0.00,,---,0.00,VWS V14.01,2013-09-12 00:20:00,
2013-09-11 20:24:00,74.9,67.9,30.02,SE,128,0.0,0.0,79,0.00,,---,0.00,VWS V14.01,2013-09-12 00:24:00,
2013-09-11 20:25:00,77.0,68.9,30.02,SE,128,0.0,0.0,76,0.00,,---,0.00,VWS V14.01,2013-09-12 00:25:00,
2013-09-11 20:29:00,74.9,67.9,30.02,SE,128,0.0,0.0,79,0.00,,---,0.00,VWS V14.01,2013-09-12 00:29:00,
2013-09-11 20:30:00,76.8,68.3,30.02,SE,128,0.0,0.0,75,0.00,,---,0.00,VWS V14.01,2013-09-12 00:30:00,
2013-09-11 20:34:00,74.7,67.4,30.03,SE,128,0.0,0.0,78,0.00,,---,0.00,VWS V14.01,2013-09-12 00:34:00,
2013-09-11 20:35:00,76.7,68.9,30.02,SE,128,0.0,0.0,77,0.00,,---,0.00,VWS V14.01,2013-09-12 00:35:00,
2013-09-11 20:39:00,74.7,67.8,30.03,SE,128,0.0,0.0,79,0.00,,---,0.00,VWS V14.01,2013-09-12 00:39:00,
2013-09-11 20:40:00,76.3,68.2,30.02,SE,128,0.0,0.0,76,0.00,,---,0.00,VWS V14.01,2013-09-12 00:40:00,
2013-09-11 20:44:00,74.6,67.7,30.03,SE,128,0.0,0.0,79,0.00,,---,0.00,VWS V14.01,2013-09-12 00:44:00,
2013-09-11 20:45:00,76.1,68.0,30.02,SE,128,0.0,0.0,76,0.00,,---,0.00,VWS V14.01,2013-09-12 00:45:00,
2013-09-11 20:49:00,74.6,67.3,30.02,SE,128,0.0,0.0,78,0.00,,---,0.00,VWS V14.01,2013-09-12 00:49:00,
2013-09-11 20:50:00,76.0,68.3,30.02,SE,128,0.0,0.0,77,0.00,,---,0.00,VWS V14.01,2013-09-12 00:50:00,
2013-09-11 20:54:00,74.4,67.1,30.02,SE,128,0.0,0.0,78,0.00,,---,0.00,VWS V14.01,2013-09-12 00:54:00,
2013-09-11 20:55:00,75.8,67.7,30.02,SE,128,0.0,0.0,76,0.00,,---,0.00,VWS V14.01,2013-09-12 00:55:00,
2013-09-11 20:59:00,74.4,67.1,30.02,SE,128,0.0,0.0,78,0.00,,---,0.00,VWS V14.01,2013-09-12 00:59:00,
2013-09-11 21:00:00,75.8,68.5,30.02,SE,128,0.0,0.0,78,0.00,,---,0.00,VWS V14.01,2013-09-12 01:00:00,
2013-09-11 21:04:00,74.4,67.1,30.02,SE,128,0.0,0.0,78,0.00,,---,0.00,VWS V14.01,2013-09-12 01:04:00,
2013-09-11 21:05:00,75.4,68.1,30.02,SE,128,0.0,0.0,78,0.00,,---,0.00,VWS V14.01,2013-09-12 01:05:00,
2013-09-11 21:09:00,74.2,66.9,30.02,SE,128,0.0,0.0,78,0.00,,---,0.00,VWS V14.01,2013-09-12 01:09:00,
2013-09-11 21:10:00,75.3,68.0,30.02,SE,128,0.0,0.0,78,0.00,,---,0.00,VWS V14.01,2013-09-12 01:10:00,
2013-09-11 21:14:00,74.2,66.5,30.02,SE,128,0.0,0.0,77,0.00,,---,0.00,VWS V14.01,2013-09-12 01:14:00,
2013-09-11 21:15:00,75.1,67.8,30.02,SE,128,0.0,0.0,78,0.00,,---,0.00,VWS V14.01,2013-09-12 01:15:00,
2013-09-11 21:19:00,74.0,66.7,30.02,SE,128,0.0,0.0,78,0.00,,---,0.00,VWS V14.01,2013-09-12 01:19:00,
2013-09-11 21:20:00,74.9,67.6,30.02,SE,128,0.0,0.0,78,0.00,,---,0.00,VWS V14.01,2013-09-12 01:20:00,
2013-09-11 21:24:00,73.9,66.6,30.02,SE,128,0.0,0.0,78,0.00,,---,0.00,VWS V14.01,2013-09-12 01:24:00,
2013-09-11 21:25:00,74.9,67.6,30.02,SE,128,0.0,0.0,78,0.00,,---,0.00,VWS V14.01,2013-09-12 01:25:00,
2013-09-11 21:29:00,73.9,66.6,30.02,SE,128,0.0,0.0,78,0.00,,---,0.00,VWS V14.01,2013-09-12 01:29:00,
2013-09-11 21:30:00,74.9,67.9,30.03,SE,128,0.0,0.0,79,0.00,,---,0.00,VWS V14.01,2013-09-12 01:30:00,
2013-09-11 21:34:00,73.9,66.6,30.03,SE,128,0.0,0.0,78,0.00,,---,0.00,VWS V14.01,2013-09-12 01:34:00,
2013-09-11 21:35:00,74.7,67.8,30.03,SE,128,0.0,0.0,79,0.00,,---,0.00,VWS V14.01,2013-09-12 01:35:00,
2013-09-11 21:39:00,73.9,67.0,30.03,SE,128,0.0,0.0,79,0.00,,---,0.00,VWS V14.01,2013-09-12 01:39:00,
2013-09-11 21:40:00,74.7,67.8,30.03,SE,128,0.0,0.0,79,0.00,,---,0.00,VWS V14.01,2013-09-12 01:40:00,
2013-09-11 21:44:00,73.7,66.8,30.03,SE,128,0.0,0.0,79,0.00,,---,0.00,VWS V14.01,2013-09-12 01:44:00,
2013-09-11 21:45:00,74.6,67.3,30.02,SE,128,0.0,0.0,78,0.00,,---,0.00,VWS V14.01,2013-09-12 01:45:00,
2013-09-11 21:49:00,73.7,66.8,30.03,SE,128,0.0,0.0,79,0.00,,---,0.00,VWS V14.01,2013-09-12 01:49:00,
2013-09-11 21:50:00,74.6,67.3,30.02,SE,128,0.0,0.0,78,0.00,,---,0.00,VWS V14.01,2013-09-12 01:50:00,
2013-09-11 21:54:00,73.7,66.8,30.03,SE,130,0.0,0.0,79,0.00,,---,0.00,VWS V14.01,2013-09-12 01:54:00,
2013-09-11 21:55:00,74.4,67.1,30.02,SE,128,0.0,0.0,78,0.00,,---,0.00,VWS V14.01,2013-09-12 01:55:00,
2013-09-11 21:59:00,73.7,66.8,30.03,SE,130,0.0,0.0,79,0.00,,---,0.00,VWS V14.01,2013-09-12 01:59:00,
2013-09-11 22:00:00,74.4,67.1,30.02,SE,128,0.0,0.0,78,0.00,,---,0.00,VWS V14.01,2013-09-12 02:00:00,
2013-09-11 22:04:00,73.5,67.0,30.03,SE,130,0.0,0.0,80,0.00,,---,0.00,VWS V14.01,2013-09-12 02:04:00,
2013-09-11 22:05:00,74.2,66.5,30.02,SE,128,0.0,0.0,77,0.00,,---,0.00,VWS V14.01,2013-09-12 02:05:00,
2013-09-11 22:09:00,73.5,66.6,30.03,SE,130,0.0,0.0,79,0.00,,---,0.00,VWS V14.01,2013-09-12 02:09:00,
2013-09-11 22:10:00,74.2,66.5,30.02,SE,128,0.0,0.0,77,0.00,,---,0.00,VWS V14.01,2013-09-12 02:10:00,
2013-09-11 22:14:00,73.5,66.6,30.03,SE,128,0.0,0.0,79,0.00,,---,0.00,VWS V14.01,2013-09-12 02:14:00,
2013-09-11 22:15:00,74.0,66.3,30.02,SE,128,0.0,0.0,77,0.00,,---,0.00,VWS V14.01,2013-09-12 02:15:00,
2013-09-11 22:19:00,73.3,66.4,30.03,SE,130,0.0,0.0,79,0.00,,---,0.00,VWS V14.01,2013-09-12 02:19:00,
2013-09-11 22:20:00,74.0,66.7,30.02,SE,128,0.0,0.0,78,0.00,,---,0.00,VWS V14.01,2013-09-12 02:20:00,
2013-09-11 22:24:00,73.3,66.4,30.03,SE,128,0.0,0.0,79,0.00,,---,0.00,VWS V14.01,2013-09-12 02:24:00,
2013-09-11 22:25:00,73.9,66.6,30.02,SE,128,0.0,0.0,78,0.00,,---,0.00,VWS V14.01,2013-09-12 02:25:00,
2013-09-11 22:29:00,73.3,66.8,30.03,SE,130,0.0,0.0,80,0.00,,---,0.00,VWS V14.01,2013-09-12 02:29:00,
2013-09-11 22:30:00,73.9,66.6,30.03,SE,128,0.0,0.0,78,0.00,,---,0.00,VWS V14.01,2013-09-12 02:30:00,
2013-09-11 22:34:00,73.3,66.4,30.03,SE,130,0.0,0.0,79,0.00,,---,0.00,VWS V14.01,2013-09-12 02:34:00,
2013-09-11 22:35:00,73.9,66.6,30.03,SE,128,0.0,0.0,78,0.00,,---,0.00,VWS V14.01,2013-09-12 02:35:00,
2013-09-11 22:39:00,73.3,66.4,30.03,SE,128,0.0,0.0,79,0.00,,---,0.00,VWS V14.01,2013-09-12 02:39:00,
2013-09-11 22:40:00,73.9,67.0,30.03,SE,128,0.0,0.0,79,0.00,,---,0.00,VWS V14.01,2013-09-12 02:40:00,
2013-09-11 22:44:00,73.3,66.4,30.03,SE,130,0.0,0.0,79,0.00,,---,0.00,VWS V14.01,2013-09-12 02:44:00,
2013-09-11 22:45:00,73.7,66.4,30.03,SE,128,0.0,0.0,78,0.00,,---,0.00,VWS V14.01,2013-09-12 02:45:00,
2013-09-11 22:49:00,73.3,66.4,30.03,SE,137,0.0,0.0,79,0.00,,---,0.00,VWS V14.01,2013-09-12 02:49:00,
2013-09-11 22:50:00,73.7,66.4,30.03,SE,128,0.0,0.0,78,0.00,,---,0.00,VWS V14.01,2013-09-12 02:50:00,
2013-09-11 22:54:00,73.5,66.6,30.03,SE,137,0.0,0.0,79,0.00,,---,0.00,VWS V14.01,2013-09-12 02:54:00,
2013-09-11 22:55:00,73.7,66.8,30.03,SE,130,0.0,0.0,79,0.00,,---,0.00,VWS V14.01,2013-09-12 02:55:00,
2013-09-11 22:59:00,73.5,66.6,30.03,SE,137,0.0,0.0,79,0.00,,---,0.00,VWS V14.01,2013-09-12 02:59:00,
2013-09-11 23:00:00,73.7,66.8,30.03,SE,130,0.0,0.0,79,0.00,,---,0.00,VWS V14.01,2013-09-12 03:00:00,
2013-09-11 23:04:00,73.5,66.6,30.02,SE,133,0.0,0.0,79,0.00,,---,0.00,VWS V14.01,2013-09-12 03:04:00,
2013-09-11 23:05:00,73.5,66.6,30.03,SE,130,0.0,0.0,79,0.00,,---,0.00,VWS V14.01,2013-09-12 03:05:00,
2013-09-11 23:09:00,73.5,66.2,30.02,SE,138,0.0,0.0,78,0.00,,---,0.00,VWS V14.01,2013-09-12 03:09:00,
2013-09-11 23:10:00,73.5,67.0,30.03,SE,130,0.0,0.0,80,0.00,,---,0.00,VWS V14.01,2013-09-12 03:10:00,
2013-09-11 23:14:00,73.5,66.2,30.02,SE,136,1.0,1.0,78,0.00,,---,0.00,VWS V14.01,2013-09-12 03:14:00,
2013-09-11 23:15:00,73.5,66.6,30.03,SE,130,0.0,0.0,79,0.00,,---,0.00,VWS V14.01,2013-09-12 03:15:00,
2013-09-11 23:19:00,73.7,66.4,30.02,SE,128,1.0,2.0,78,0.00,,---,0.00,VWS V14.01,2013-09-12 03:19:00,
2013-09-11 23:20:00,73.3,66.0,30.03,SE,130,0.0,0.0,78,0.00,,---,0.00,VWS V14.01,2013-09-12 03:20:00,
2013-09-11 23:24:00,73.9,66.6,30.02,SSE,158,0.0,3.0,78,0.00,,---,0.00,VWS V14.01,2013-09-12 03:24:00,
2013-09-11 23:25:00,73.3,66.4,30.03,SE,130,0.0,0.0,79,0.00,,---,0.00,VWS V14.01,2013-09-12 03:25:00,
2013-09-11 23:29:00,73.9,66.6,30.02,ESE,114,0.0,2.0,78,0.00,,---,0.00,VWS V14.01,2013-09-12 03:29:00,
2013-09-11 23:30:00,73.3,66.4,30.03,SE,128,0.0,0.0,79,0.00,,---,0.00,VWS V14.01,2013-09-12 03:30:00,
2013-09-11 23:34:00,74.0,66.7,30.01,SE,137,0.0,0.0,78,0.00,,---,0.00,VWS V14.01,2013-09-12 03:34:00,
2013-09-11 23:35:00,73.3,66.4,30.03,SE,130,0.0,0.0,79,0.00,,---,0.00,VWS V14.01,2013-09-12 03:35:00,
2013-09-11 23:39:00,74.0,66.7,30.01,SE,143,0.0,0.0,78,0.00,,---,0.00,VWS V14.01,2013-09-12 03:39:00,
2013-09-11 23:40:00,73.3,66.4,30.03,SE,128,0.0,0.0,79,0.00,,---,0.00,VWS V14.01,2013-09-12 03:40:00,
2013-09-11 23:44:00,74.0,66.7,30.01,SSE,150,0.0,2.0,78,0.00,,---,0.00,VWS V14.01,2013-09-12 03:44:00,
2013-09-11 23:45:00,73.3,66.4,30.03,SE,130,0.0,0.0,79,0.00,,---,0.00,VWS V14.01,2013-09-12 03:45:00,
2013-09-11 23:49:00,74.0,66.7,30.01,SSE,160,0.0,0.0,78,0.00,,---,0.00,VWS V14.01,2013-09-12 03:49:00,
2013-09-11 23:50:00,73.3,66.4,30.03,SE,137,0.0,0.0,79,0.00,,---,0.00,VWS V14.01,2013-09-12 03:50:00,
2013-09-11 23:54:00,74.0,66.7,30.01,SE,136,0.0,0.0,78,0.00,,---,0.00,VWS V14.01,2013-09-12 03:54:00,
2013-09-11 23:55:00,73.5,66.6,30.03,SE,136,0.0,0.0,79,0.00,,---,0.00,VWS V14.01,2013-09-12 03:55:00,
2013-09-11 23:59:00,74.0,66.7,30.01,SE,133,0.0,0.0,78,0.00,,---,0.00,VWS V14.01,2013-09-12 03:59:00,